owner,sensor,date,latitude,longitude,vertical_datum,wind_speed,wind_to_direction,wind_speed_of_gust,qcFlag 
ADCP,ioos:station:wmo:42369:1,2011-04-01T00:00:00Z,27.2070,-90.2830,60.4,2.7,307.0,99.0,'11111222,11111222,11144222' 
ADCP,ioos:station:wmo:42369:1,2011-04-01T00:20:00Z,27.2070,-90.2830,60.4,2.8,303.0,99.0,'11111222,11111222,11144222' 
ADCP,ioos:station:wmo:42369:1,2011-04-01T00:40:00Z,27.2070,-90.2830,60.4,2.9,312.0,99.0,'11111222,11111222,11144222' 
ADCP,ioos:station:wmo:42369:1,2011-04-01T01:00:00Z,27.2070,-90.2830,60.4,3.0,322.0,99.0,'11111222,11111222,11144222' 
ADCP,ioos:station:wmo:42369:1,2011-04-01T01:20:00Z,27.2070,-90.2830,60.4,2.5,327.0,99.0,'11111222,11111222,11144222' 
ADCP,ioos:station:wmo:42369:1,2011-04-01T01:40:00Z,27.2070,-90.2830,60.4,2.4,328.0,99.0,'11111222,11111222,11144222' 
ADCP,ioos:station:wmo:42369:1,2011-04-01T02:00:00Z,27.2070,-90.2830,60.4,2.6,325.0,99.0,'11111222,11111222,11144222' 
ADCP,ioos:station:wmo:42369:1,2011-04-01T02:20:00Z,27.2070,-90.2830,60.4,2.3,332.0,99.0,'11111222,11111222,11144222' 
ADCP,ioos:station:wmo:42369:1,2011-04-01T03:00:00Z,27.2070,-90.2830,60.4,2.6,325.0,99.0,'11111222,11111222,11144222' 
ADCP,ioos:station:wmo:42369:1,2011-04-01T03:20:00Z,27.2070,-90.2830,60.4,3.0,317.0,99.0,'11111222,11111222,11144222' 
ADCP,ioos:station:wmo:42369:1,2011-04-01T03:40:00Z,27.2070,-90.2830,60.4,2.9,330.0,99.0,'11111222,11111222,11144222' 
ADCP,ioos:station:wmo:42369:1,2011-04-01T04:20:00Z,27.2070,-90.2830,60.4,2.3,330.0,99.0,'11111222,11111222,11144222' 
ADCP,ioos:station:wmo:42369:1,2011-04-01T04:40:00Z,27.2070,-90.2830,60.4,2.5,323.0,99.0,'11111222,11111222,11144222' 
ADCP,ioos:station:wmo:42369:1,2011-04-01T05:00:00Z,27.2070,-90.2830,60.4,2.5,324.0,99.0,'11111222,11111222,11144222' 
ADCP,ioos:station:wmo:42369:1,2011-04-01T05:20:00Z,27.2070,-90.2830,60.4,2.4,325.0,99.0,'11111222,11111222,11144222' 
ADCP,ioos:station:wmo:42369:1,2011-04-01T05:40:00Z,27.2070,-90.2830,60.4,2.0,324.0,99.0,'11111222,11111222,11144222' 
ADCP,ioos:station:wmo:42369:1,2011-04-01T06:00:00Z,27.2070,-90.2830,60.4,2.4,303.0,99.0,'11111222,11111222,11144222' 
ADCP,ioos:station:wmo:42369:1,2011-04-01T06:20:00Z,27.2070,-90.2830,60.4,3.1,308.0,99.0,'11111222,11111222,11144222' 
ADCP,ioos:station:wmo:42369:1,2011-04-01T06:40:00Z,27.2070,-90.2830,60.4,3.0,305.0,99.0,'11111222,11111222,11144222' 
ADCP,ioos:station:wmo:42369:1,2011-04-01T07:00:00Z,27.2070,-90.2830,60.4,3.8,302.0,99.0,'11111222,11111222,11144222' 
ADCP,ioos:station:wmo:42369:1,2011-04-01T07:20:00Z,27.2070,-90.2830,60.4,2.6,292.0,99.0,'11111222,11111222,11144222' 
ADCP,ioos:station:wmo:42369:1,2011-04-01T07:40:00Z,27.2070,-90.2830,60.4,1.6,267.0,99.0,'11111222,11111222,11144222' 
ADCP,ioos:station:wmo:42369:1,2011-04-01T08:00:00Z,27.2070,-90.2830,60.4,2.1,271.0,99.0,'11111222,11111222,11144222' 
ADCP,ioos:station:wmo:42369:1,2011-04-01T08:20:00Z,27.2070,-90.2830,60.4,2.5,301.0,99.0,'11111222,11111222,11144222' 
ADCP,ioos:station:wmo:42369:1,2011-04-01T08:40:00Z,27.2070,-90.2830,60.4,2.6,322.0,99.0,'11111222,11111222,11144222' 
ADCP,ioos:station:wmo:42369:1,2011-04-01T09:00:00Z,27.2070,-90.2830,60.4,2.4,327.0,99.0,'11111222,11111222,11144222' 
ADCP,ioos:station:wmo:42369:1,2011-04-01T09:20:00Z,27.2070,-90.2830,60.4,2.4,319.0,99.0,'11111222,11111222,11144222' 
ADCP,ioos:station:wmo:42369:1,2011-04-01T09:40:00Z,27.2070,-90.2830,60.4,2.4,326.0,99.0,'11111222,11111222,11144222' 
ADCP,ioos:station:wmo:42369:1,2011-04-01T10:00:00Z,27.2070,-90.2830,60.4,2.3,314.0,99.0,'11111222,11111222,11144222' 
ADCP,ioos:station:wmo:42369:1,2011-04-01T10:20:00Z,27.2070,-90.2830,60.4,2.2,294.0,99.0,'11111222,11111222,11144222' 
ADCP,ioos:station:wmo:42369:1,2011-04-01T10:40:00Z,27.2070,-90.2830,60.4,3.2,273.0,99.0,'11111222,11111222,11144222' 
ADCP,ioos:station:wmo:42369:1,2011-04-01T11:00:00Z,27.2070,-90.2830,60.4,2.5,313.0,99.0,'11111222,11111222,11144222' 
ADCP,ioos:station:wmo:42369:1,2011-04-01T11:20:00Z,27.2070,-90.2830,60.4,3.4,247.0,99.0,'11111222,11111222,11144222' 
ADCP,ioos:station:wmo:42369:1,2011-04-01T11:40:00Z,27.2070,-90.2830,60.4,4.0,168.0,99.0,'11111222,11111222,11144222' 
ADCP,ioos:station:wmo:42369:1,2011-04-01T12:00:00Z,27.2070,-90.2830,60.4,3.6,83.0,99.0,'11111222,11111222,11144222' 
ADCP,ioos:station:wmo:42369:1,2011-04-01T12:20:00Z,27.2070,-90.2830,60.4,2.4,64.0,99.0,'11111222,11111222,11144222' 
ADCP,ioos:station:wmo:42369:1,2011-04-01T12:40:00Z,27.2070,-90.2830,60.4,2.5,70.0,99.0,'11111222,11111222,11144222' 
ADCP,ioos:station:wmo:42369:1,2011-04-01T13:00:00Z,27.2070,-90.2830,60.4,2.2,79.0,99.0,'11111222,11111222,11144222' 
ADCP,ioos:station:wmo:42369:1,2011-04-01T13:20:00Z,27.2070,-90.2830,60.4,2.5,79.0,99.0,'11111222,11111222,11144222' 
ADCP,ioos:station:wmo:42369:1,2011-04-01T13:40:00Z,27.2070,-90.2830,60.4,2.2,96.0,99.0,'11111222,11111222,11144222' 
ADCP,ioos:station:wmo:42369:1,2011-04-01T14:00:00Z,27.2070,-90.2830,60.4,1.6,110.0,99.0,'11111222,11111222,11144222' 
ADCP,ioos:station:wmo:42369:1,2011-04-01T14:20:00Z,27.2070,-90.2830,60.4,1.1,127.0,99.0,'11111222,11111222,11144222' 
ADCP,ioos:station:wmo:42369:1,2011-04-01T14:40:00Z,27.2070,-90.2830,60.4,1.3,128.0,99.0,'11111222,11111222,11144222' 
ADCP,ioos:station:wmo:42369:1,2011-04-01T15:00:00Z,27.2070,-90.2830,60.4,1.2,139.0,99.0,'11111222,11111222,11144222' 
ADCP,ioos:station:wmo:42369:1,2011-04-01T15:20:00Z,27.2070,-90.2830,60.4,1.4,133.0,99.0,'11111222,11111222,11144222' 
ADCP,ioos:station:wmo:42369:1,2011-04-01T15:40:00Z,27.2070,-90.2830,60.4,2.1,141.0,99.0,'11111222,11111222,11144222' 
ADCP,ioos:station:wmo:42369:1,2011-04-01T16:00:00Z,27.2070,-90.2830,60.4,1.9,145.0,99.0,'11111222,11111222,11144222' 
ADCP,ioos:station:wmo:42369:1,2011-04-01T16:20:00Z,27.2070,-90.2830,60.4,2.4,141.0,99.0,'11111222,11111222,11144222' 
ADCP,ioos:station:wmo:42369:1,2011-04-01T16:40:00Z,27.2070,-90.2830,60.4,1.9,142.0,99.0,'11111222,11111222,11144222' 
ADCP,ioos:station:wmo:42369:1,2011-04-01T17:00:00Z,27.2070,-90.2830,60.4,2.0,136.0,99.0,'11111222,11111222,11144222' 
ADCP,ioos:station:wmo:42369:1,2011-04-01T17:20:00Z,27.2070,-90.2830,60.4,2.0,137.0,99.0,'11111222,11111222,11144222' 
ADCP,ioos:station:wmo:42369:1,2011-04-01T17:40:00Z,27.2070,-90.2830,60.4,2.2,148.0,99.0,'11111222,11111222,11144222' 
ADCP,ioos:station:wmo:42369:1,2011-04-01T18:00:00Z,27.2070,-90.2830,60.4,2.6,160.0,99.0,'11111222,11111222,11144222' 
ADCP,ioos:station:wmo:42369:1,2011-04-01T18:20:00Z,27.2070,-90.2830,60.4,2.9,164.0,99.0,'11111222,11111222,11144222' 
ADCP,ioos:station:wmo:42369:1,2011-04-01T18:40:00Z,27.2070,-90.2830,60.4,2.7,168.0,99.0,'11111222,11111222,11144222' 
ADCP,ioos:station:wmo:42369:1,2011-04-01T19:00:00Z,27.2070,-90.2830,60.4,2.5,172.0,99.0,'11111222,11111222,11144222' 
ADCP,ioos:station:wmo:42369:1,2011-04-01T19:20:00Z,27.2070,-90.2830,60.4,2.6,168.0,99.0,'11111222,11111222,11144222' 
ADCP,ioos:station:wmo:42369:1,2011-04-01T19:40:00Z,27.2070,-90.2830,60.4,1.8,172.0,99.0,'11111222,11111222,11144222' 
ADCP,ioos:station:wmo:42369:1,2011-04-01T20:00:00Z,27.2070,-90.2830,60.4,1.8,173.0,99.0,'11111222,11111222,11144222' 
ADCP,ioos:station:wmo:42369:1,2011-04-01T20:20:00Z,27.2070,-90.2830,60.4,1.1,154.0,99.0,'11111222,11111222,11144222' 
ADCP,ioos:station:wmo:42369:1,2011-04-01T20:40:00Z,27.2070,-90.2830,60.4,1.9,169.0,99.0,'11111222,11111222,11144222' 
ADCP,ioos:station:wmo:42369:1,2011-04-01T21:00:00Z,27.2070,-90.2830,60.4,2.2,172.0,99.0,'11111222,11111222,11144222' 
ADCP,ioos:station:wmo:42369:1,2011-04-01T21:20:00Z,27.2070,-90.2830,60.4,1.7,159.0,99.0,'11111222,11111222,11144222' 
ADCP,ioos:station:wmo:42369:1,2011-04-01T21:40:00Z,27.2070,-90.2830,60.4,1.4,158.0,99.0,'11111222,11111222,11144222' 
ADCP,ioos:station:wmo:42369:1,2011-04-01T22:00:00Z,27.2070,-90.2830,60.4,1.4,160.0,99.0,'11111222,11111222,11144222' 
ADCP,ioos:station:wmo:42369:1,2011-04-01T22:40:00Z,27.2070,-90.2830,60.4,1.5,160.0,99.0,'11111222,11111222,11144222' 
ADCP,ioos:station:wmo:42369:1,2011-04-01T23:00:00Z,27.2070,-90.2830,60.4,1.2,156.0,99.0,'11111222,11111222,11144222' 
ADCP,ioos:station:wmo:42369:1,2011-04-01T23:20:00Z,27.2070,-90.2830,60.4,1.8,157.0,99.0,'11111222,11111222,11144222' 
ADCP,ioos:station:wmo:42369:1,2011-04-01T23:40:00Z,27.2070,-90.2830,60.4,1.1,141.0,99.0,'11111222,11111222,11144222' 
ADCP,ioos:station:wmo:42369:1,2011-04-02T00:00:00Z,27.2070,-90.2830,60.4,1.3,151.0,99.0,'11111222,11111222,11144222' 
ADCP,ioos:station:wmo:42369:1,2011-04-02T00:20:00Z,27.2070,-90.2830,60.4,1.5,152.0,99.0,'11111222,11111222,11144222' 
ADCP,ioos:station:wmo:42369:1,2011-04-02T00:40:00Z,27.2070,-90.2830,60.4,0.8,146.0,99.0,'11111222,11111222,11144222' 
ADCP,ioos:station:wmo:42369:1,2011-04-02T01:00:00Z,27.2070,-90.2830,60.4,1.1,150.0,99.0,'11111222,11111222,11144222' 
ADCP,ioos:station:wmo:42369:1,2011-04-02T01:20:00Z,27.2070,-90.2830,60.4,1.6,148.0,99.0,'11111222,11111222,11144222' 
ADCP,ioos:station:wmo:42369:1,2011-04-02T01:40:00Z,27.2070,-90.2830,60.4,1.2,130.0,99.0,'11111222,11111222,11144222' 
ADCP,ioos:station:wmo:42369:1,2011-04-02T02:00:00Z,27.2070,-90.2830,60.4,2.4,124.0,99.0,'11111222,11111222,11144222' 
ADCP,ioos:station:wmo:42369:1,2011-04-02T02:20:00Z,27.2070,-90.2830,60.4,2.7,126.0,99.0,'11111222,11111222,11144222' 
ADCP,ioos:station:wmo:42369:1,2011-04-02T02:40:00Z,27.2070,-90.2830,60.4,3.6,131.0,99.0,'11111222,11111222,11144222' 
ADCP,ioos:station:wmo:42369:1,2011-04-02T03:00:00Z,27.2070,-90.2830,60.4,3.3,120.0,99.0,'11111222,11111222,11144222' 
ADCP,ioos:station:wmo:42369:1,2011-04-02T03:20:00Z,27.2070,-90.2830,60.4,4.2,127.0,99.0,'11111222,11111222,11144222' 
ADCP,ioos:station:wmo:42369:1,2011-04-02T03:40:00Z,27.2070,-90.2830,60.4,3.8,121.0,99.0,'11111222,11111222,11144222' 
ADCP,ioos:station:wmo:42369:1,2011-04-02T04:00:00Z,27.2070,-90.2830,60.4,4.6,131.0,99.0,'11111222,11111222,11144222' 
ADCP,ioos:station:wmo:42369:1,2011-04-02T04:20:00Z,27.2070,-90.2830,60.4,4.3,133.0,99.0,'11111222,11111222,11144222' 
ADCP,ioos:station:wmo:42369:1,2011-04-02T04:40:00Z,27.2070,-90.2830,60.4,4.3,138.0,99.0,'11111222,11111222,11144222' 
ADCP,ioos:station:wmo:42369:1,2011-04-02T05:00:00Z,27.2070,-90.2830,60.4,3.0,148.0,99.0,'11111222,11111222,11144222' 
ADCP,ioos:station:wmo:42369:1,2011-04-02T05:20:00Z,27.2070,-90.2830,60.4,3.1,148.0,99.0,'11111222,11111222,11144222' 
ADCP,ioos:station:wmo:42369:1,2011-04-02T05:40:00Z,27.2070,-90.2830,60.4,3.9,142.0,99.0,'11111222,11111222,11144222' 
ADCP,ioos:station:wmo:42369:1,2011-04-02T06:00:00Z,27.2070,-90.2830,60.4,2.6,150.0,99.0,'11111222,11111222,11144222' 
ADCP,ioos:station:wmo:42369:1,2011-04-02T06:20:00Z,27.2070,-90.2830,60.4,2.7,151.0,99.0,'11111222,11111222,11144222' 
ADCP,ioos:station:wmo:42369:1,2011-04-02T06:40:00Z,27.2070,-90.2830,60.4,3.4,156.0,99.0,'11111222,11111222,11144222' 
ADCP,ioos:station:wmo:42369:1,2011-04-02T07:00:00Z,27.2070,-90.2830,60.4,3.3,155.0,99.0,'11111222,11111222,11144222' 
ADCP,ioos:station:wmo:42369:1,2011-04-02T07:20:00Z,27.2070,-90.2830,60.4,4.2,159.0,99.0,'11111222,11111222,11144222' 
ADCP,ioos:station:wmo:42369:1,2011-04-02T07:40:00Z,27.2070,-90.2830,60.4,3.8,155.0,99.0,'11111222,11111222,11144222' 
ADCP,ioos:station:wmo:42369:1,2011-04-02T08:00:00Z,27.2070,-90.2830,60.4,4.8,161.0,99.0,'11111222,11111222,11144222' 
ADCP,ioos:station:wmo:42369:1,2011-04-02T08:20:00Z,27.2070,-90.2830,60.4,4.6,161.0,99.0,'11111222,11111222,11144222' 
ADCP,ioos:station:wmo:42369:1,2011-04-02T08:40:00Z,27.2070,-90.2830,60.4,4.9,163.0,99.0,'11111222,11111222,11144222' 
ADCP,ioos:station:wmo:42369:1,2011-04-02T09:00:00Z,27.2070,-90.2830,60.4,6.0,168.0,99.0,'11111222,11111222,11144222' 
ADCP,ioos:station:wmo:42369:1,2011-04-02T09:20:00Z,27.2070,-90.2830,60.4,7.0,171.0,99.0,'11111222,11111222,11144222' 
ADCP,ioos:station:wmo:42369:1,2011-04-02T09:40:00Z,27.2070,-90.2830,60.4,7.7,172.0,99.0,'11111222,11111222,11144222' 
ADCP,ioos:station:wmo:42369:1,2011-04-02T10:00:00Z,27.2070,-90.2830,60.4,6.9,176.0,99.0,'11111222,11111222,11144222' 
ADCP,ioos:station:wmo:42369:1,2011-04-02T10:20:00Z,27.2070,-90.2830,60.4,6.8,175.0,99.0,'11111222,11111222,11144222' 
ADCP,ioos:station:wmo:42369:1,2011-04-02T10:40:00Z,27.2070,-90.2830,60.4,6.2,177.0,99.0,'11111222,11111222,11144222' 
ADCP,ioos:station:wmo:42369:1,2011-04-02T11:00:00Z,27.2070,-90.2830,60.4,5.7,180.0,99.0,'11111222,11111222,11144222' 
ADCP,ioos:station:wmo:42369:1,2011-04-02T11:20:00Z,27.2070,-90.2830,60.4,4.8,182.0,99.0,'11111222,11111222,11144222' 
ADCP,ioos:station:wmo:42369:1,2011-04-02T11:40:00Z,27.2070,-90.2830,60.4,4.4,176.0,99.0,'11111222,11111222,11144222' 
ADCP,ioos:station:wmo:42369:1,2011-04-02T12:00:00Z,27.2070,-90.2830,60.4,4.2,174.0,99.0,'11111222,11111222,11144222' 
ADCP,ioos:station:wmo:42369:1,2011-04-02T12:20:00Z,27.2070,-90.2830,60.4,3.7,171.0,99.0,'11111222,11111222,11144222' 
ADCP,ioos:station:wmo:42369:1,2011-04-02T12:40:00Z,27.2070,-90.2830,60.4,2.8,180.0,99.0,'11111222,11111222,11144222' 
ADCP,ioos:station:wmo:42369:1,2011-04-02T13:00:00Z,27.2070,-90.2830,60.4,1.9,197.0,99.0,'11111222,11111222,11144222' 
ADCP,ioos:station:wmo:42369:1,2011-04-02T13:20:00Z,27.2070,-90.2830,60.4,1.9,240.0,99.0,'11111222,11111222,11144222' 
ADCP,ioos:station:wmo:42369:1,2011-04-02T13:40:00Z,27.2070,-90.2830,60.4,1.9,248.0,99.0,'11111222,11111222,11144222' 
ADCP,ioos:station:wmo:42369:1,2011-04-02T14:00:00Z,27.2070,-90.2830,60.4,2.5,231.0,99.0,'11111222,11111222,11144222' 
ADCP,ioos:station:wmo:42369:1,2011-04-02T14:20:00Z,27.2070,-90.2830,60.4,2.5,240.0,99.0,'11111222,11111222,11144222' 
ADCP,ioos:station:wmo:42369:1,2011-04-02T14:40:00Z,27.2070,-90.2830,60.4,1.9,251.0,99.0,'11111222,11111222,11144222' 
ADCP,ioos:station:wmo:42369:1,2011-04-02T15:00:00Z,27.2070,-90.2830,60.4,2.5,307.0,99.0,'11111222,11111222,11144222' 
ADCP,ioos:station:wmo:42369:1,2011-04-02T15:20:00Z,27.2070,-90.2830,60.4,1.9,310.0,99.0,'11111222,11111222,11144222' 
ADCP,ioos:station:wmo:42369:1,2011-04-02T15:40:00Z,27.2070,-90.2830,60.4,0.8,208.0,99.0,'11111222,11111222,11144222' 
ADCP,ioos:station:wmo:42369:1,2011-04-02T16:00:00Z,27.2070,-90.2830,60.4,1.4,208.0,99.0,'11111222,11111222,11144222' 
ADCP,ioos:station:wmo:42369:1,2011-04-02T16:20:00Z,27.2070,-90.2830,60.4,1.4,215.0,99.0,'11111222,11111222,11144222' 
ADCP,ioos:station:wmo:42369:1,2011-04-02T16:40:00Z,27.2070,-90.2830,60.4,1.4,226.0,99.0,'11111222,11111222,11144222' 
ADCP,ioos:station:wmo:42369:1,2011-04-02T17:00:00Z,27.2070,-90.2830,60.4,1.4,218.0,99.0,'11111222,11111222,11144222' 
ADCP,ioos:station:wmo:42369:1,2011-04-02T17:20:00Z,27.2070,-90.2830,60.4,0.9,188.0,99.0,'11111222,11111222,11144222' 
ADCP,ioos:station:wmo:42369:1,2011-04-02T17:40:00Z,27.2070,-90.2830,60.4,0.3,171.0,99.0,'11111222,11111222,11144222' 
ADCP,ioos:station:wmo:42369:1,2011-04-02T18:00:00Z,27.2070,-90.2830,60.4,0.5,154.0,99.0,'11111222,11111222,11144222' 
ADCP,ioos:station:wmo:42369:1,2011-04-02T18:20:00Z,27.2070,-90.2830,60.4,0.5,116.0,99.0,'11111222,11111222,11144222' 
ADCP,ioos:station:wmo:42369:1,2011-04-02T18:40:00Z,27.2070,-90.2830,60.4,1.1,84.0,99.0,'11111222,11111222,11144222' 
ADCP,ioos:station:wmo:42369:1,2011-04-02T19:00:00Z,27.2070,-90.2830,60.4,1.2,79.0,99.0,'11111222,11111222,11144222' 
ADCP,ioos:station:wmo:42369:1,2011-04-02T19:20:00Z,27.2070,-90.2830,60.4,1.1,85.0,99.0,'11111222,11111222,11144222' 
ADCP,ioos:station:wmo:42369:1,2011-04-02T19:40:00Z,27.2070,-90.2830,60.4,1.4,64.0,99.0,'11111222,11111222,11144222' 
ADCP,ioos:station:wmo:42369:1,2011-04-02T20:00:00Z,27.2070,-90.2830,60.4,1.4,75.0,99.0,'11111222,11111222,11144222' 
ADCP,ioos:station:wmo:42369:1,2011-04-02T20:20:00Z,27.2070,-90.2830,60.4,1.5,63.0,99.0,'11111222,11111222,11144222' 
ADCP,ioos:station:wmo:42369:1,2011-04-02T20:40:00Z,27.2070,-90.2830,60.4,1.5,63.0,99.0,'11111222,11111222,11144222' 
ADCP,ioos:station:wmo:42369:1,2011-04-02T21:00:00Z,27.2070,-90.2830,60.4,1.7,67.0,99.0,'11111222,11111222,11144222' 
ADCP,ioos:station:wmo:42369:1,2011-04-02T21:20:00Z,27.2070,-90.2830,60.4,2.4,85.0,99.0,'11111222,11111222,11144222' 
ADCP,ioos:station:wmo:42369:1,2011-04-02T21:40:00Z,27.2070,-90.2830,60.4,3.0,89.0,99.0,'11111222,11111222,11144222' 
ADCP,ioos:station:wmo:42369:1,2011-04-02T22:00:00Z,27.2070,-90.2830,60.4,3.3,84.0,99.0,'11111222,11111222,11144222' 
ADCP,ioos:station:wmo:42369:1,2011-04-02T22:40:00Z,27.2070,-90.2830,60.4,3.4,98.0,99.0,'11111222,11111222,11144222' 
ADCP,ioos:station:wmo:42369:1,2011-04-02T23:00:00Z,27.2070,-90.2830,60.4,3.4,96.0,99.0,'11111222,11111222,11144222' 
ADCP,ioos:station:wmo:42369:1,2011-04-02T23:20:00Z,27.2070,-90.2830,60.4,3.8,86.0,99.0,'11111222,11111222,11144222' 
ADCP,ioos:station:wmo:42369:1,2011-04-02T23:40:00Z,27.2070,-90.2830,60.4,4.3,82.0,99.0,'11111222,11111222,11144222' 
ADCP,ioos:station:wmo:42369:1,2011-04-03T00:00:00Z,27.2070,-90.2830,60.4,4.7,81.0,99.0,'11111222,11111222,11144222' 
ADCP,ioos:station:wmo:42369:1,2011-04-03T00:20:00Z,27.2070,-90.2830,60.4,5.0,83.0,99.0,'11111222,11111222,11144222' 
ADCP,ioos:station:wmo:42369:1,2011-04-03T00:40:00Z,27.2070,-90.2830,60.4,4.9,90.0,99.0,'11111222,11111222,11144222' 
ADCP,ioos:station:wmo:42369:1,2011-04-03T01:00:00Z,27.2070,-90.2830,60.4,4.9,97.0,99.0,'11111222,11111222,11144222' 
ADCP,ioos:station:wmo:42369:1,2011-04-03T01:20:00Z,27.2070,-90.2830,60.4,4.9,94.0,99.0,'11111222,11111222,11144222' 
ADCP,ioos:station:wmo:42369:1,2011-04-03T01:40:00Z,27.2070,-90.2830,60.4,5.7,93.0,99.0,'11111222,11111222,11144222' 
ADCP,ioos:station:wmo:42369:1,2011-04-03T02:00:00Z,27.2070,-90.2830,60.4,5.5,95.0,99.0,'11111222,11111222,11144222' 
ADCP,ioos:station:wmo:42369:1,2011-04-03T02:20:00Z,27.2070,-90.2830,60.4,4.9,94.0,99.0,'11111222,11111222,11144222' 
ADCP,ioos:station:wmo:42369:1,2011-04-03T02:40:00Z,27.2070,-90.2830,60.4,5.8,96.0,99.0,'11111222,11111222,11144222' 
ADCP,ioos:station:wmo:42369:1,2011-04-03T03:00:00Z,27.2070,-90.2830,60.4,5.7,97.0,99.0,'11111222,11111222,11144222' 
ADCP,ioos:station:wmo:42369:1,2011-04-03T03:20:00Z,27.2070,-90.2830,60.4,5.4,96.0,99.0,'11111222,11111222,11144222' 
ADCP,ioos:station:wmo:42369:1,2011-04-03T03:40:00Z,27.2070,-90.2830,60.4,5.8,98.0,99.0,'11111222,11111222,11144222' 
ADCP,ioos:station:wmo:42369:1,2011-04-03T04:00:00Z,27.2070,-90.2830,60.4,6.3,97.0,99.0,'11111222,11111222,11144222' 
ADCP,ioos:station:wmo:42369:1,2011-04-03T04:20:00Z,27.2070,-90.2830,60.4,5.7,98.0,99.0,'11111222,11111222,11144222' 
ADCP,ioos:station:wmo:42369:1,2011-04-03T04:40:00Z,27.2070,-90.2830,60.4,5.6,97.0,99.0,'11111222,11111222,11144222' 
ADCP,ioos:station:wmo:42369:1,2011-04-03T05:00:00Z,27.2070,-90.2830,60.4,5.3,95.0,99.0,'11111222,11111222,11144222' 
ADCP,ioos:station:wmo:42369:1,2011-04-03T05:20:00Z,27.2070,-90.2830,60.4,5.4,95.0,99.0,'11111222,11111222,11144222' 
ADCP,ioos:station:wmo:42369:1,2011-04-03T05:40:00Z,27.2070,-90.2830,60.4,5.8,97.0,99.0,'11111222,11111222,11144222' 
ADCP,ioos:station:wmo:42369:1,2011-04-03T06:00:00Z,27.2070,-90.2830,60.4,6.0,97.0,99.0,'11111222,11111222,11144222' 
ADCP,ioos:station:wmo:42369:1,2011-04-03T06:20:00Z,27.2070,-90.2830,60.4,5.8,98.0,99.0,'11111222,11111222,11144222' 
ADCP,ioos:station:wmo:42369:1,2011-04-03T06:40:00Z,27.2070,-90.2830,60.4,5.4,98.0,99.0,'11111222,11111222,11144222' 
ADCP,ioos:station:wmo:42369:1,2011-04-03T07:00:00Z,27.2070,-90.2830,60.4,5.2,98.0,99.0,'11111222,11111222,11144222' 
ADCP,ioos:station:wmo:42369:1,2011-04-03T07:20:00Z,27.2070,-90.2830,60.4,5.7,102.0,99.0,'11111222,11111222,11144222' 
ADCP,ioos:station:wmo:42369:1,2011-04-03T07:40:00Z,27.2070,-90.2830,60.4,6.4,105.0,99.0,'11111222,11111222,11144222' 
ADCP,ioos:station:wmo:42369:1,2011-04-03T08:00:00Z,27.2070,-90.2830,60.4,6.1,106.0,99.0,'11111222,11111222,11144222' 
ADCP,ioos:station:wmo:42369:1,2011-04-03T08:20:00Z,27.2070,-90.2830,60.4,5.9,107.0,99.0,'11111222,11111222,11144222' 
ADCP,ioos:station:wmo:42369:1,2011-04-03T08:40:00Z,27.2070,-90.2830,60.4,6.2,107.0,99.0,'11111222,11111222,11144222' 
ADCP,ioos:station:wmo:42369:1,2011-04-03T09:00:00Z,27.2070,-90.2830,60.4,6.3,107.0,99.0,'11111222,11111222,11144222' 
ADCP,ioos:station:wmo:42369:1,2011-04-03T09:20:00Z,27.2070,-90.2830,60.4,6.3,107.0,99.0,'11111222,11111222,11144222' 
ADCP,ioos:station:wmo:42369:1,2011-04-03T09:40:00Z,27.2070,-90.2830,60.4,6.0,109.0,99.0,'11111222,11111222,11144222' 
ADCP,ioos:station:wmo:42369:1,2011-04-03T10:00:00Z,27.2070,-90.2830,60.4,5.7,110.0,99.0,'11111222,11111222,11144222' 
ADCP,ioos:station:wmo:42369:1,2011-04-03T10:20:00Z,27.2070,-90.2830,60.4,6.9,125.0,99.0,'11111222,11111222,11144222' 
ADCP,ioos:station:wmo:42369:1,2011-04-03T10:40:00Z,27.2070,-90.2830,60.4,7.6,131.0,99.0,'11111222,11111222,11144222' 
ADCP,ioos:station:wmo:42369:1,2011-04-03T11:00:00Z,27.2070,-90.2830,60.4,7.6,132.0,99.0,'11111222,11111222,11144222' 
ADCP,ioos:station:wmo:42369:1,2011-04-03T11:20:00Z,27.2070,-90.2830,60.4,7.0,132.0,99.0,'11111222,11111222,11144222' 
ADCP,ioos:station:wmo:42369:1,2011-04-03T11:40:00Z,27.2070,-90.2830,60.4,5.9,136.0,99.0,'11111222,11111222,11144222' 
ADCP,ioos:station:wmo:42369:1,2011-04-03T12:00:00Z,27.2070,-90.2830,60.4,7.2,132.0,99.0,'11111222,11111222,11144222' 
ADCP,ioos:station:wmo:42369:1,2011-04-03T12:20:00Z,27.2070,-90.2830,60.4,8.2,130.0,99.0,'11111222,11111222,11144222' 
ADCP,ioos:station:wmo:42369:1,2011-04-03T12:40:00Z,27.2070,-90.2830,60.4,8.2,128.0,99.0,'11111222,11111222,11144222' 
ADCP,ioos:station:wmo:42369:1,2011-04-03T13:00:00Z,27.2070,-90.2830,60.4,8.5,130.0,99.0,'11111222,11111222,11144222' 
ADCP,ioos:station:wmo:42369:1,2011-04-03T13:20:00Z,27.2070,-90.2830,60.4,8.8,131.0,99.0,'11111222,11111222,11144222' 
ADCP,ioos:station:wmo:42369:1,2011-04-03T13:40:00Z,27.2070,-90.2830,60.4,7.3,133.0,99.0,'11111222,11111222,11144222' 
ADCP,ioos:station:wmo:42369:1,2011-04-03T14:00:00Z,27.2070,-90.2830,60.4,8.5,131.0,99.0,'11111222,11111222,11144222' 
ADCP,ioos:station:wmo:42369:1,2011-04-03T14:20:00Z,27.2070,-90.2830,60.4,8.9,131.0,99.0,'11111222,11111222,11144222' 
ADCP,ioos:station:wmo:42369:1,2011-04-03T14:40:00Z,27.2070,-90.2830,60.4,8.2,132.0,99.0,'11111222,11111222,11144222' 
ADCP,ioos:station:wmo:42369:1,2011-04-03T15:00:00Z,27.2070,-90.2830,60.4,7.4,134.0,99.0,'11111222,11111222,11144222' 
ADCP,ioos:station:wmo:42369:1,2011-04-03T15:20:00Z,27.2070,-90.2830,60.4,7.3,134.0,99.0,'11111222,11111222,11144222' 
ADCP,ioos:station:wmo:42369:1,2011-04-03T15:40:00Z,27.2070,-90.2830,60.4,8.2,133.0,99.0,'11111222,11111222,11144222' 
ADCP,ioos:station:wmo:42369:1,2011-04-03T16:00:00Z,27.2070,-90.2830,60.4,7.9,132.0,99.0,'11111222,11111222,11144222' 
ADCP,ioos:station:wmo:42369:1,2011-04-03T16:20:00Z,27.2070,-90.2830,60.4,6.3,137.0,99.0,'11111222,11111222,11144222' 
ADCP,ioos:station:wmo:42369:1,2011-04-03T16:40:00Z,27.2070,-90.2830,60.4,4.5,145.0,99.0,'11111222,11111222,11144222' 
ADCP,ioos:station:wmo:42369:1,2011-04-03T17:00:00Z,27.2070,-90.2830,60.4,3.9,148.0,99.0,'11111222,11111222,11144222' 
ADCP,ioos:station:wmo:42369:1,2011-04-03T17:20:00Z,27.2070,-90.2830,60.4,3.4,150.0,99.0,'11111222,11111222,11144222' 
ADCP,ioos:station:wmo:42369:1,2011-04-03T17:40:00Z,27.2070,-90.2830,60.4,3.0,150.0,99.0,'11111222,11111222,11144222' 
ADCP,ioos:station:wmo:42369:1,2011-04-03T18:00:00Z,27.2070,-90.2830,60.4,3.1,151.0,99.0,'11111222,11111222,11144222' 
ADCP,ioos:station:wmo:42369:1,2011-04-03T18:20:00Z,27.2070,-90.2830,60.4,3.0,152.0,99.0,'11111222,11111222,11144222' 
ADCP,ioos:station:wmo:42369:1,2011-04-03T18:40:00Z,27.2070,-90.2830,60.4,2.9,151.0,99.0,'11111222,11111222,11144222' 
ADCP,ioos:station:wmo:42369:1,2011-04-03T19:00:00Z,27.2070,-90.2830,60.4,2.9,152.0,99.0,'11111222,11111222,11144222' 
ADCP,ioos:station:wmo:42369:1,2011-04-03T19:20:00Z,27.2070,-90.2830,60.4,3.0,149.0,99.0,'11111222,11111222,11144222' 
ADCP,ioos:station:wmo:42369:1,2011-04-03T19:40:00Z,27.2070,-90.2830,60.4,3.9,154.0,99.0,'11111222,11111222,11144222' 
ADCP,ioos:station:wmo:42369:1,2011-04-03T20:00:00Z,27.2070,-90.2830,60.4,3.3,155.0,99.0,'11111222,11111222,11144222' 
ADCP,ioos:station:wmo:42369:1,2011-04-03T20:20:00Z,27.2070,-90.2830,60.4,3.0,151.0,99.0,'11111222,11111222,11144222' 